Location: Unspecified
(0.0000°N, 0.0000°E)
Time: 14:47:22
(UTC+00:00)

Envisat - Pass Details

Date: 26 April 2019
Orbit: 764 x 766 km, 98.2° (Epoch: 24 May)

Event Time Altitude Azimuth Distance (km) Brightness Sun altitude
Rises 18:26:35 0° 153° (SSE) 3,231 5.8 -7.0°
Reaches altitude 10° 18:29:03 10° 145° (SE) 2,303 5.0 -7.6°
Maximum altitude 18:33:43 37° 78° (ENE) 1,175 3.5 -8.7°
Drops below altitude 10° 18:38:20 10° 11° (NNE) 2,293 5.5 -9.8°
Sets 18:40:47 0° 3° (N) 3,216 6.4 -10.4°
